Tracking 22223 objects as of 26-Jan-2021
HD Live streaming from Space Station
objects crossing your sky now

INTELSAT 602

Track INTELSAT 602 now!
INTELSAT 602 is classified as:


NORAD ID: 20315
Int'l Code: 1989-087A
Perigee: 36,149.4 km
Apogee: 36,156.7 km
Inclination: 13.2 °
Period: 1,454.5 minutes
Semi major axis: 42524 km
RCS: 19.9526 m2 (large)
Launch date: October 27, 1989
Source: International Telecommunications Satellite Organization (ITSO)
Launch site: FRENCH GUIANA (FRGUI)

Inclined orbit; Indian Ocean region; C-band and Ku-band broadcasting.
aabbcc
Your satellite tracking list
Your tracking list is empty




NASA's NSSDC Master Catalog

Two Line Element Set (TLE):
1 20315U 89087A   21025.51887942  .00000052  00000-0  00000-0 0  9994
2 20315  13.2214  21.4543 0000863  44.3121 317.2309  0.99003569111837
Source of the keplerian elements: AFSPC